sat.trackr.live / text

‹ back to catalog

STARLINK-34875

NORAD 65689 · 2025-212P

PAYLOAD ACTIVE UNKNOWN

§ Identity

Operator
Country
US
Launch date
2025-09-21
Launch site
AFETR
Launch vehicle
Mass (kg)
RCS (m²)

Purposes: comms

External: N2YO · Heavens-Above · Gunter

§ Orbital elements

Epoch: 2026-05-24T14:29:14.387136Z

Period
94.10 min
Inclination
53.1602°
Eccentricity
0.0001296
Mean motion
15.30206532 rev/d
Perigee alt
474.3 km
Apogee alt
476.1 km
Semi-major
6,853.3 km
B*
4.2318e-4
RAAN
353.2523°
Arg perigee
98.8887°
Mean anomaly
261.2261°
Rev number
3,886

§ Raw data

STARLINK-348751 65689U 25212P   26144.60363874  .00012197  00000+0  42318-3 0  99902 65689  53.1602 353.2523 0001296  98.8887 261.2261 15.30206532 38864

JSON: /api/v1/satellites/65689 · /tle

For live sub-satellite position, see the globe view (requires WebGL).

§ Visibility from observer

Set your observer location to see the next 7 days of passes ≥ 10°. The values pass through the URL so the page stays shareable.

No JS? Fill the form by hand. The geolocation button needs JavaScript.